Regional Weather Roundup
Issued by NWS

Home | Current Version | Previous Version | Graphics & Text | Print | Product List | Glossary On
Versions: 1 2 3 4 5 6 7 8 9 10 11 12 13 14 15 16 17 18 19 20 21 22 23 24 25 26 27 28 29 30 31 32 33 34 35 36 37 38 39 40 41 42 43 44 45 46 47 48 49 50
000
ASUS43 KIND 290209
RWRIN

WEATHER ROUNDUP FOR INDIANA
NATIONAL WEATHER SERVICE INDIANAPOLIS IN
1000 PM EDT SAT MAY 28 2016

NOTE: "FAIR" INDICATES FEW OR NO CLOUDS BELOW 12,000 FEET WITH NO
SIGNIFICANT WEATHER AND/OR OBSTRUCTIONS TO VISIBILITY.

* - STATION DOES NOT REPORT WEATHER SUCH AS PRECIPITATION OR FOG.

+ - STATION NOT QUALITY CONTROLLED BY THE NATIONAL WEATHER SERVICE.
    USE DATA WITH CAUTION...ESPECIALLY DEWPOINT AND RELATIVE
    HUMIDITY OBSERVATIONS.

INZ001>003-010>013-019-020-290300-
NORTHWEST INDIANA

CITY           SKY/WX    TMP DP  RH WIND       PRES   REMARKS
GARY /AIRPORT/ PTCLDY    79  70  73 SE8       29.92S
KNOX *+        PTCLDY    75  52  43 S10G17    29.97R
LA PORTE +     CLEAR     77  63  62 S6        29.97S
MICHIGAN CITY+ CLEAR     75  61  60 S9        29.96R
MONTICELLO +   CLEAR     75  60  58 S9G16     29.98S
RENSSELAER +   PTCLDY    77  59  53 S13G20    29.97R
VALPARAISO     CLEAR     75  61  61 S6        29.96S

$$

LMZ046-743>745-290300-
SOUTHERN LAKE MICHIGAN

STATION/POSITION TIME  TEMP    WIND        PRES    WAVE
                       AIR SEA DIR/SP/G            HT
                 (UTC) (F)     (DEG/KT/KT) (MB)    (FT)
BURNS HARBOR     0100   78     190/ 12/ 15 1013.9R
MICHIGAN CITY    0100   80     170/ 12/ 15   N/A
5NW MICH CITY    0100   70 57  210/ 10/ 12   N/A     1

$$

INZ004-005-014>016-021>024-290300-
NORTH CENTRAL INDIANA

CITY           SKY/WX    TMP DP  RH WIND       PRES   REMARKS
GOSHEN         MOCLDY    74  62  66 S10       30.00S
LOGANSPORT +   PTCLDY    73  63  68 S13       30.02R
PERU/GRISSOM   MOCLDY    74  64  71 S13       30.01R
ROCHESTER +    PTCLDY    77  64  65 S12G17    30.01S
SOUTH BEND     PTCLDY    76  61  59 S12       29.98R
WARSAW +       CLOUDY    73  63  68 S3        30.01S

$$

INZ006>009-017-018-025>027-290300-
NORTHEAST INDIANA

CITY           SKY/WX    TMP DP  RH WIND       PRES   REMARKS
ANGOLA *+        N/A     73  64  73 S9        30.03S
AUBURN +       CLOUDY    72  63  73 S3        30.05R
FORT WAYNE     CLOUDY    74  65  73 S12       30.04R
HUNTINGTON +   CLOUDY   N/A N/A N/A S8        30.03S

$$

INZ028-029-035-036-043>045-051>053-290300-
WEST CENTRAL INDIANA

CITY           SKY/WX    TMP DP  RH WIND       PRES   REMARKS
CRAWFORDSVL +  CLEAR     70  66  87 S8        30.02S
GREENCASTLE +  PTCLDY    70  68  94 S5        30.04R
LAFAYETTE      CLEAR     73  64  73 S6        29.99R
TERRE HAUTE    PTCLDY    74  66  76 S8        30.01S

$$

INZ030>032-037>040-046>048-054>057-064-065-290300-
CENTRAL INDIANA

CITY           SKY/WX    TMP DP  RH WIND       PRES   REMARKS
CP ATTERBURY + CLOUDY    72  64  78 S7        30.05S
COLUMBUS       CLEAR     73  68  83 S9        30.05
FISHERS *+     MOCLDY    72  70  94 S6        30.04S
FRANKFORT +      N/A     73  56  55 S6        30.03S
GREENWOOD *+   CLOUDY    73  66  78 S7        30.05S
INDIANAPOLIS   CLOUDY    73  66  78 S8        30.02S
-EAGLE CREEK   MOCLDY    74  65  73 S6        30.03S
KOKOMO *+      MOCLDY    73  61  64 S10       30.02S
MARION +       CLOUDY    72  65  77 S9        30.04S
SHELBYVILLE    CLOUDY    75  65  70 S12       30.05R
ZIONSVILLE +   PTCLDY    72  64  76 S8        30.05R

$$

INZ033-034-041-042-049-050-058-059-290300-
EAST CENTRAL INDIANA

CITY           SKY/WX    TMP DP  RH WIND       PRES   REMARKS
MUNCIE         LGT RAIN  73  66  78 S9        30.05S

$$

INZ060-061-067>069-081>083-085>088-290300-
SOUTHWEST INDIANA

CITY           SKY/WX    TMP DP  RH WIND       PRES   REMARKS
EVANSVILLE     MOCLDY    75  66  73 S6        30.03F
HUNTINGBURG *+ CLOUDY    73  64  73 SE6       30.05S
WASHINGTON +   PTCLDY    73  67  82 S6        30.03S

$$

INZ062-063-066-070>080-084-089>092-290300-
SOUTH CENTRAL AND SOUTHEAST INDIANA

CITY           SKY/WX    TMP DP  RH WIND       PRES   REMARKS
BEDFORD +      CLOUDY    73  72  94 S6        30.05S
BLOOMINGTON    CLOUDY    71  65  81 S3        30.05R
MADISON *+     CLOUDY    72  61  68 S5        30.10R
NORTH VERNON + CLOUDY   N/A N/A N/A CALM      30.08R
SEYMOUR +      CLOUDY    73  66  78 S7        30.06S

$$





USA.gov is the U.S. government's official web portal to all federal, state and local government web resources and services.